Regional Weather Roundup
Issued by NWS

Home | Current Version | Previous Version | Graphics & Text | Print | Product List | Glossary On
Versions: 1 2 3 4 5 6 7 8 9 10 11 12 13 14 15 16 17 18 19 20 21 22 23 24 25 26 27 28 29 30 31 32 33 34 35 36 37 38 39 40 41 42 43 44 45 46 47 48 49 50
000
ASUS45 KTFX 290419
RWRMT
MONTANA HOURLY WEATHER ROUNDUP
NATIONAL WEATHER SERVICE GREAT FALLS MT
1019 PM MDT SAT MAR 28 2015

NOTE: "FAIR" INDICATES FEW OR NO CLOUDS BELOW 12000 FEET WITH NO
SIGNIFICANT WEATHER AND/OR OBSTRUCTIONS TO VISIBILITY.

* THESE STATIONS ARE NOT UNDER NWS QUALITY CONTROL. THEY DO NOT
   REPORT WEATHER SUCH AS PRECIPITATION OR FOG.

MTZ001>007-043-290500-
WEST OF THE DIVIDE
CITY           SKY/WX    TMP DP  RH WIND       PRES   REMARKS
KALISPELL      CLOUDY    46  37  71 S8        30.23R
MISSOULA       MOCLDY    45  30  56 W17       30.31R
BUTTE          CLEAR     37  21  52 NW10      30.26R WCI  30
MULLAN PASS    LGT SNOW  32  32 100 VRB5      30.28R VSB 1    WCI  27
* ESSEX        N/A       38  37  96 E3         N/A
* EUREKA APT   MOCLDY    45  34  65 E8        30.21R
* HAMILTON APT PTCLDY    43  28  56 SE8       30.31R
* LIBBY APT    CLOUDY    48  36  63 E3        30.24R
* LINCOLN      N/A       40  30  68 SW6G19     N/A   WCI  36
* LOOKOUT PASS N/A       39  34  82 N4         N/A
* POLSON       N/A       43  36  76 W2G11      N/A
* RONAN APT    CLOUDY    46  37  71 N/A        N/A
* SEELEY LAKE  N/A       37  33  85 N3         N/A
* THOMP F APT  CLOUDY    39  12  33 N9G23      N/A   WCI  33
$$

MTZ008-052>055-290500-
SOUTHWEST MONTANA
CITY           SKY/WX    TMP DP  RH WIND       PRES   REMARKS
BOZEMAN        CLOUDY    45  19  35 W5        30.23R
DILLON         CLEAR     39  18  43 W10       30.24S WCI  32
* W YELLOWSTON PTCLDY    35  16  46 N/A        N/A
* THREE FORKS  PTCLDY    46  21  37 SW6        N/A
* TWIN BRIDGES PTCLDY    45  18  34 W16G22     N/A
* BOULDER HILL N/A       40  18  41 VRB1G12    N/A
* HOMESTAKE PS N/A       35  19  52 W18G32     N/A   WCI  24
* MONIDA PASS  N/A       34  15  46 VRB14G21    N/A   WCI  24
* RAYNOLDS PAS N/A       33 -13  13 N9         N/A   WCI  25
* WHITEHALL    N/A       45  20  37 W7G19      N/A
* WISE RIVER   N/A       38  20  48 W12G32     N/A   WCI  30
$$

MTZ009>010-012-014-046-048-049-054-290500-
EAST SLOPES AND CENTRAL MONTANA
CITY           SKY/WX    TMP DP  RH WIND       PRES   REMARKS
CUT BANK       PTCLDY    39  28  65 W16       30.07R WCI  30
GREAT FALLS    CLOUDY    46  27  48 W15G23    30.11R
HELENA         PTCLDY    46  27  48 W18G25    30.19R
MALMSTROM AFB  CLOUDY    48  27  44 W16       30.12R
* CONRAD       PTCLDY    46  30  54 SW18G26    N/A
* DEARBORN     N/A       49  26  41 SE5G13     N/A
* EAST GLACIER N/A       42  25  51 W13G29     N/A
* MONARCH      N/A       36  28  73 W12        N/A   WCI  28
* PENDROY      N/A       41  25  53 NW13G19    N/A
* ROGERS PASS  N/A       37  28  70 SE11G26    N/A   WCI  29
* SAINT MARY   N/A       41  30  65 SW9G22     N/A
* WHITE SULPH  N/A       41  24  51 NW13G24    N/A
$$

MTZ011-013-016-021-035-040-045-047-050-051-290500-
NORTH CENTRAL MONTANA
CITY           SKY/WX    TMP DP  RH WIND       PRES   REMARKS
HAVRE          CLOUDY    43  39  86 SW10      30.05R
LEWISTOWN      CLOUDY    39  37  93 W10       30.12R WCI  32
* N BAR RANCH  FOG       36  34  92 NW26G41   30.04R WCI  24
* CHINOOK      PTCLDY    45  43  93 W15       30.01R
* FORT BENTON  CLOUDY    45  37  74 SW7       30.11R
* MALTA APT    CLOUDY    46  39  77 W21G30     N/A
* CHESTER      N/A       42  36  79 W7G13      N/A
* DENTON       N/A       41  39  93 W18G28     N/A
* GEYSER       N/A       39  36  89 SW10       N/A   WCI  32
* JUDITH GAP   N/A       37  36  96 NW14G21    N/A   WCI  28
* LOMA         N/A       49  35  59 W13G18     N/A
$$

MTZ017>020-022>027-061-062-290500-
NORTHEAST MONTANA
CITY           SKY/WX    TMP DP  RH WIND       PRES   REMARKS
GLASGOW        LGT RAIN  45  39  80 NW37G47   29.83R
GLENDIVE       PTCLDY    46  36  68 W24G30    29.75S
JORDAN         CLOUDY    43  37  79 NW30G37   29.87R
SIDNEY         MOCLDY    46  39  77 W30G40    29.66F
WOLF POINT     LGT RAIN  46  43  89 W20       29.74R
* BEAVER HILL  N/A       48  34  59 W20G28     N/A
* CIRCLE       N/A       44  40  86 W20G28     N/A
* LINDSAY DVD  N/A       44  36  74 W21G29     N/A
* NAVAJO       N/A       42  40  93 NW27G38    N/A
* POPLAR APT   CLOUDY    46  45  96 W20G29    29.72R VSB 2 1/2
* SACO         N/A       45  41  86 NW22G35    N/A
$$

MTZ028>042-056>058-290500-
SOUTHCENTRAL AND SOUTHEAST MONTANA
CITY           SKY/WX    TMP DP  RH WIND       PRES   REMARKS
BAKER          CLEAR     46  34  63 W21       29.79R
BILLINGS       MOCLDY    52  19  27 NW25G38   30.06R
LIVINGSTON     PTCLDY    46  19  34 W26       30.14R
MILES CITY     HAZE      48  32  54 NW47G63   29.84R
* BIG TIMBER A MOCLDY    46  19  34 SW33G45   30.11R
* FORSYTH APT  PTCLDY    52  28  40 W28G37    29.89R
* LAUREL APT   PTCLDY    52  19  27 W29G36     N/A
* ROUNDUP APT  CLOUDY    48  27  44 W25G39     N/A
* ALZADA       N/A       54  17  23 W17G26     N/A
* HYSHAM       N/A       50  23  35 W24G35     N/A
* LAME DEER    N/A       49  16  27 W23G37     N/A
* REED POINT   N/A       51  21  31 W27G38     N/A
* ROSCOE HILL  N/A       45   4  18 W12G26     N/A
$$

REGIONAL REPORTS...DAKOTAS
CITY           SKY/WX    TMP DP  RH WIND       PRES   REMARKS
WILLISTON      CLOUDY    48  41  77 W23G35    29.60F
DICKINSON      PTCLDY    45  36  71 W12       29.68R
BEACH          MOCLDY    45  37  74 W13       29.75R
CROSBY         LGT RAIN  48  48 100 NW13      29.59R
TIOGA          LGT RAIN  46  46 100 W15G21    29.62R
WATFORD CITY   LGT RAIN  48  37  66 W24G33    29.62S
BISMARCK       LGT RAIN  54  50  86 W22G30    29.63R
GRAND FORKS    LGT RAIN  43  34  71 S25G35    29.61R
FARGO          LGT RAIN  45  28  51 S25G39    29.61F
BUFFALO SD     CLEAR     48  37  66 W16       29.75R
RAPID CITY     CLEAR     55  28  35 N35G45    29.78R
$$

REGIONAL REPORTS...WYOMING/IDAHO/WASHINGTON
CITY           SKY/WX    TMP DP  RH WIND       PRES   REMARKS
GILLETTE       MOCLDY    52  14  22 NW29G41   29.92R
SHERIDAN       PTCLDY    52  14  22 NW31G44   29.98R
CODY           PTCLDY    48  10  21 NW14      30.09R
YELLOWSTONE LA MOCLDY    30  10  43 CALM      30.27R
SALMON         CLEAR     41  21  45 CALM      30.31R
MULLAN PASS    LGT SNOW  32  32 100 VRB5      30.28S VSB 1    WCI  27
SAND POINT     CLOUDY    45  37  74 SW3       30.23S
SPOKANE        PTCLDY    48  34  59 SW10      30.26R
$$

REGIONAL REPORTS...ALBERTA
CITY           SKY/WX    TMP DP  RH WIND       PRES   REMARKS
CALGARY        PTCLDY    41  32  70 S6        30.02R
LETHBRIDGE     MOCLDY    46  34  63 W18       30.06R
MEDICINE HAT   MOCLDY    45  37  74 NW15G22   30.02R
EDMONTON       FAIR      30  28  92 S7        29.93R WCI  23
WATERTON GATE  N/A       45  27  49 SW21G30    N/A
CARDSTON       N/A       45  30  56 W13G21     N/A
MILK RIVER     N/A       39  36  89 W10        N/A   WCI  32
$$

REGIONAL REPORTS...SASKATCHEWAN
CITY           SKY/WX    TMP DP  RH WIND       PRES   REMARKS
SWIFT CURRENT  CLOUDY    37  37 100 NW20G26   29.88R WCI  27
REGINA         CLOUDY    39  36  89 NW21G29   29.72R WCI  29
VAL MARIE      N/A       43  39  86 NW25G35    N/A
ASSINIBOIA     N/A       39  37  93 NW23G31    N/A   WCI  28
CORONACH       N/A       41  39  93 NW29G41    N/A

$$



USA.gov is the U.S. government's official web portal to all federal, state and local government web resources and services.